TimeEET,TemperatureF,Dew PointF,Humidity,Sea Level PressureIn,VisibilityMPH,Wind Direction,Wind SpeedMPH,Gust SpeedMPH,PrecipitationIn,Events,Conditions,WindDirDegrees,DateUTC
12:50 AM,19.4,14.0,80,30.30,-9999.0,SW,5.8,-,N/A,,Clear,220,2013-03-06 22:50:00
1:50 AM,19.4,12.2,74,30.30,-9999.0,WSW,6.9,-,N/A,,Clear,250,2013-03-06 23:50:00
2:00 AM,19,13,70,30.42,12,WSW,6.9,,,,,250,2013-03-07 00:00:00
2:50 AM,19.4,12.2,74,30.30,-9999.0,SW,8.1,-,N/A,,Clear,220,2013-03-07 00:50:00
3:50 AM,17.6,10.4,73,30.30,-9999.0,West,4.6,-,N/A,,Clear,280,2013-03-07 01:50:00
4:50 AM,17.6,10.4,73,30.30,-9999.0,SW,6.9,-,N/A,,Clear,220,2013-03-07 02:50:00
5:50 AM,19.4,12.2,74,30.33,-9999.0,WSW,8.1,-,N/A,,Clear,250,2013-03-07 03:50:00
6:50 AM,24.8,15.8,69,30.33,-9999.0,West,3.5,-,N/A,,Clear,260,2013-03-07 04:50:00
7:50 AM,32.0,15.8,51,30.36,-9999.0,SSW,4.6,-,N/A,,Clear,210,2013-03-07 05:50:00
8:00 AM,31,14,35,30.48,12,SSW,4.6,,,,,210,2013-03-07 06:00:00
8:50 AM,37.4,10.4,33,30.33,-9999.0,Variable,3.5,-,N/A,,Clear,0,2013-03-07 06:50:00
9:50 AM,41.0,8.6,26,30.33,6.2,Variable,3.5,-,N/A,,Partly Cloudy,0,2013-03-07 07:50:00
10:50 AM,42.8,10.4,27,30.30,6.2,SE,5.8,-,N/A,,Partly Cloudy,130,2013-03-07 08:50:00
11:50 AM,44.6,6.8,21,30.30,6.2,Variable,6.9,-,N/A,,Partly Cloudy,0,2013-03-07 09:50:00
12:50 PM,46.4,10.4,23,30.27,6.2,Variable,5.8,-,N/A,,Partly Cloudy,0,2013-03-07 10:50:00
1:50 PM,48.2,10.4,22,30.24,6.2,Variable,2.3,-,N/A,,Partly Cloudy,0,2013-03-07 11:50:00
2:00 PM,48,9,10,30.35,12,SE,2.3,,,,Scattered Clouds,130,2013-03-07 12:00:00
2:50 PM,48.2,8.6,20,30.24,-9999.0,SE,5.8,-,N/A,,Clear,130,2013-03-07 12:50:00
3:50 PM,48.2,8.6,20,30.21,-9999.0,SSE,4.6,-,N/A,,Clear,150,2013-03-07 13:50:00
4:50 PM,46.4,10.4,23,30.24,-9999.0,SSE,4.6,-,N/A,,Clear,150,2013-03-07 14:50:00
5:50 PM,42.8,12.2,29,30.24,-9999.0,NE,5.8,-,N/A,,Clear,50,2013-03-07 15:50:00
6:50 PM,35.6,12.2,38,30.24,-9999.0,East,5.8,-,N/A,,Clear,90,2013-03-07 16:50:00
7:50 PM,35.6,17.6,48,30.24,-9999.0,Variable,1.2,-,N/A,,Clear,0,2013-03-07 17:50:00
8:00 PM,35,15,30,30.37,12,SE,1.2,,,,,130,2013-03-07 18:00:00
8:50 PM,26.6,17.6,69,30.27,-9999.0,WSW,6.9,-,N/A,,Clear,240,2013-03-07 18:50:00
9:50 PM,26.6,17.6,69,30.24,-9999.0,SSW,4.6,-,N/A,,Clear,200,2013-03-07 19:50:00
10:50 PM,26.6,17.6,69,30.24,-9999.0,WNW,3.5,-,N/A,,Clear,290,2013-03-07 20:50:00
11:50 PM,24.8,17.6,74,30.24,-9999.0,WSW,5.8,-,N/A,,Clear,250,2013-03-07 21:50:00